This demonstration page uses our WeatherBlox Daily Observations layout. Learn more.

Left ArrowRight Arrow

39.08367, -84.50855

Hourly Observations for September 23, 2017

Temp ( °F °C ) Dew Point ( °F °C ) Humidity (%) Winds ( mph kmh ) Pressure ( in mb ) Visibility ( mi km ) Precip ( " mm )
12:53 am 00:53 Clear with Mist and Fog 67 19.4 67 19.4 100 100 N N/A 30.06 1018 4 6 N/A
1:15 am 01:15 Clear with Mist and Fog 66 18.9 66 18.9 100 100 N N/A 30.06 1018 2 3 N/A
1:29 am 01:29 Clear with Mist and Fog 66 18.9 66 18.9 100 100 N N/A 30.03 1017 3 5 N/A
1:51 am 01:51 Clear with Mist and Fog 66 19 66 19 100 100 N N/A 30.06 1018 2 3 N/A
1:53 am 01:53 Clear with Mist and Fog 66 18.9 66 18.9 100 100 N N/A 30.06 1018 1 2 N/A
2:01 am 02:01 Clear with Fog 66 18.9 66 18.9 100 100 N N/A 30.06 1018 1 1 N/A
2:11 am 02:11 Clear with Mist and Fog 65 18.3 65 18.3 100 100 N N/A 30.06 1018 2 2 N/A
2:37 am 02:37 Clear with Mist and Fog 65 18.3 65 18.3 100 100 N N/A 30.03 1017 3 5 N/A
2:53 am 02:53 Clear with Mist and Fog 64 17.8 64 17.8 100 100 N N/A 30.06 1018 2 3 N/A
3:02 am 03:02 Clear with Fog 65 18.3 65 18.3 100 100 N N/A 30.03 1017 1 1 N/A
3:25 am 03:25 Clear with Mist and Fog 65 18.3 65 18.3 100 100 N N/A 30.03 1017 2 2 N/A
3:29 am 03:29 Clear with Mist and Fog 64 17.8 64 17.8 100 100 N N/A 30.03 1017 3 5 N/A
3:33 am 03:33 Clear with Mist and Fog 64 17.8 64 17.8 100 100 N N/A 30.03 1017 2 3 N/A
3:46 am 03:46 Mostly Cloudy with Mist and Fog 64 17.8 64 17.8 100 100 N N/A 30.03 1017 1 1 N/A
3:53 am 03:53 Mostly Cloudy with Fog 65 18.3 65 18.3 100 100 N N/A 30.05 1018 1 1 N/A
3:59 am 03:59 Mostly Clear with Mist and Fog 64 17.8 64 17.8 100 100 N N/A 30.03 1017 2 3 N/A
4:06 am 04:06 Mostly Cloudy with Mist and Fog 62 16.7 62 16.7 100 100 N N/A 30.03 1017 1 1 N/A
4:14 am 04:14 Mostly Cloudy with Fog 63 17.2 63 17.2 100 100 N N/A 30.03 1017 0 0 N/A
4:20 am 04:20 Mostly Cloudy with Mist and Fog 63 17.2 63 17.2 100 100 N N/A 30.03 1017 1 2 N/A
4:31 am 04:31 Mostly Cloudy with Fog 64 17.8 64 17.8 100 100 N N/A 30.06 1018 1 1 N/A
4:39 am 04:39 Mostly Cloudy with Fog 63 17.2 63 17.2 100 100 N N/A 30.06 1018 0 0 N/A
4:53 am 04:53 Mostly Cloudy with Fog 63 17.2 63 17.2 100 100 N N/A 30.06 1018 1 1 N/A
4:58 am 04:58 Partly Cloudy with Mist and Fog 63 17.2 63 17.2 100 100 N N/A 30.06 1018 1 2 N/A
5:00 am 05:00 Partly Cloudy with Mist and Fog 63 17.2 63 17.2 100 100 N N/A 30.06 1018 3 5 N/A
5:08 am 05:08 Mostly Clear with Mist and Fog 63 17.2 63 17.2 100 100 N N/A 30.06 1018 2 3 N/A
5:20 am 05:20 Clear with Mist and Fog 63 17.2 63 17.2 100 100 N N/A 30.06 1018 3 5 N/A
5:33 am 05:33 Clear with Mist and Fog 63 17.2 63 17.2 100 100 N N/A 30.06 1018 2 2 N/A
5:38 am 05:38 Mostly Cloudy with Fog 62 16.7 62 16.7 100 100 N N/A 30.06 1018 1 1 N/A
5:49 am 05:49 Mostly Cloudy with Fog 63 17 63 17 100 100 N N/A 30.06 1018 0 0 N/A
5:53 am 05:53 Mostly Cloudy with Fog 62 16.7 62 16.7 100 100 N N/A 30.07 1018 0 0 N/A
6:02 am 06:02 Mostly Cloudy with Fog 63 17.2 63 17.2 100 100 N N/A 30.06 1018 0 0 N/A
6:14 am 06:14 Mostly Cloudy with Fog 63 17.2 63 17.2 100 100 N N/A 30.06 1018 1 1 N/A
6:22 am 06:22 Mostly Cloudy with Fog 62 16.7 62 16.7 100 100 N N/A 30.06 1018 0 0 N/A
6:34 am 06:34 Partly Cloudy with Mist and Fog 63 17.2 63 17.2 100 100 N N/A 30.06 1018 2 2 N/A
6:36 am 06:36 Partly Cloudy with Mist and Fog 63 17.2 63 17.2 100 100 N N/A 30.06 1018 3 5 N/A
6:53 am 06:53 Partly Cloudy with Patchy Fog 62 16.7 62 16.7 100 100 N N/A 30.09 1019 3 5 N/A
7:53 am 07:53 Partly Cloudy with Patchy Fog 62 16.7 62 16.7 100 100 N N/A 30.11 1020 3 5 N/A
8:53 am 08:53 Sunny with Mist and Fog 66 18.9 66 18.9 100 100 N N/A 30.13 1020 4 6 N/A
9:53 am 09:53 Sunny 73 22.8 69 20.6 87 87 N N/A 30.13 1020 10 16 N/A
10:53 am 10:53 Sunny 80 26.7 69 20.6 69 69 N N/A 30.12 1020 9 14 N/A
11:53 am 11:53 Sunny 84 28.9 69 20.6 61 61 VRB 3 6 30.11 1020 10 16 N/A
12:53 pm 12:53 Sunny 87 30.6 65 18.3 48 48 VRB 5 7 30.10 1019 10 16 N/A
1:53 pm 13:53 Sunny 89 31.7 67 19.4 48 48 VRB 5 7 30.09 1019 10 16 N/A
2:53 pm 14:53 Sunny 90 32.2 65 18.3 44 44 NNE 8 13 30.07 1018 10 16 N/A
3:53 pm 15:53 Sunny 91 32.8 66 18.9 44 44 NE 9 15 30.05 1018 10 16 N/A
4:53 pm 16:53 Sunny 90 32.2 65 18.3 44 44 E 7 11 30.04 1017 10 16 N/A
5:53 pm 17:53 Sunny 90 32.2 65 18.3 44 44 NE 9 15 30.04 1017 10 16 N/A
6:53 pm 18:53 Sunny 88 31.1 68 20 52 52 N N/A 30.04 1017 10 16 N/A
7:53 pm 19:53 Clear 78 25.6 70 21.1 76 76 N N/A 30.05 1018 10 16 N/A
8:53 pm 20:53 Clear 72 22.2 69 20.6 91 91 N N/A 30.06 1018 10 16 N/A
9:53 pm 21:53 Clear 70 21.1 68 20 93 93 N N/A 30.06 1018 10 16 N/A
10:53 pm 22:53 Clear 68 20 67 19.4 96 96 N N/A 30.06 1018 9 14 N/A
11:53 pm 23:53 Clear 67 19.4 67 19.4 100 100 N N/A 30.06 1018 7 11 N/A

Powered by AerisWeather